Other Surface Observations
Issued by NWS

Home | Current Version | Previous Version | Text Only | Print | Product List | Glossary On
Versions: 1 2 3 4 5 6 7 8 9 10 11 12 13 14 15 16 17 18 19 20 21 22 23 24 25 26 27 28 29 30 31 32 33 34 35 36 37 38 39 40 41 42 43 44 45 46 47 48 49 50
868
SXUS52 KTAE 270518
OSOTAE
OSOTAE
North Florida/South Alabama/Southwest Georgia Weather Roundup
National Weather Service Tallahassee Florida
100 AM EDT WED JUL 27 2016

Note: "fair" indicates few or no clouds below 12,000 feet with no
significant weather and/or obstructions to visibility.

!FLZ017-115-028-034-025-270600
...North Florida...

CITY           SKY/WX    TMP DP  RH WIND       PRES   REMARKS
TALLAHASSEE    CLEAR     79  75  87 CALM      30.08R
APALACHICOLA   PTCLDY    77  77 100 CALM      30.08S
PERRY          CLEAR     77  75  93 CALM      30.09S
CROSS CITY       N/A     75  71  87 CALM      30.07S
JACKSONVILLE   CLOUDY    78  76  93 CALM      30.08R
$$

!FLZ112-006-005-002-011-270600
...Florida Panhandle...

CITY           SKY/WX    TMP DP  RH WIND       PRES   REMARKS
MARIANNA       PTCLDY    76  76 100 SW5       30.07R
BONIFAY        MOCLDY    75  74  96 S5        30.09R
PANAMA CITY NW MOCLDY    77  75  93 CALM      30.06S
TYNDALL AFB    CLOUDY    81  75  82 W9        30.08R
TYND DRONE APT NOT AVBL
DE FUNIAK SPR  DRIZZLE   74  74 100 S6        30.08S
EGLIN AFB      PTCLDY    81  73  76 SW8       30.05S
DESTIN         CLOUDY    84  78  82 SW8       30.05F HX  95
HURLBURT       PTCLDY    82  72  71 SW8       30.04S
CRESTVIEW      LGT RAIN  76  73  91 CALM      30.07R
PENSACOLA      PTCLDY    80  73  79 SW7       30.04S
$$

!ALZ063-066-270600
...South Alabama...

CITY           SKY/WX    TMP DP  RH WIND       PRES   REMARKS
DOTHAN         CLEAR     75  73  93 S6        30.11R
OZARK CAIRNS   PTCLDY    75  75 100 S7        30.07R
FT RUCKER HELI PTCLDY    76  74  93 S3        30.06R
RUCKER HELI 3  FAIR      76  73  90 S7        30.08R
RUCKER HELI 2  FAIR      76  74  93 CALM      30.07R
FLORALA APT    CLEAR     75  73  93 S5        30.08R
ANDALUSIA      CLEAR     79  74  84 SE3       30.06R
TROY           CLEAR     74  74 100 S5        30.07R
EUFALA         FAIR      78  74  87 S5        30.06R
MOBILE         CLOUDY    76  74  93 S3        30.04R
$$

!GAZ120>161-270600
...Southwest and South Central Georgia...

CITY           SKY/WX    TMP DP  RH WIND       PRES   REMARKS
THOMASVILLE      N/A     75  75 100 CALM      30.10R
BAINBRIDGE     CLEAR     77  73  88 CALM      30.08R
MOODY AFB      CLEAR     78  72  81 SW5       30.08R
VALDOSTA       CLEAR     75  74  96 CALM      30.08S
MOULTRIE       CLEAR     77  73  88 CALM      30.09S
BLAKELY        CLEAR     77  73  88 CALM      30.08R
ALBANY         CLEAR     76  73  91 SW3       30.10R
TIFTON         FAIR      77  73  88 SW6       30.08S
FITZGERALD     FAIR      82  76  83 CALM      30.10R
CORDELE        FAIR      80  76  89 SW5       30.08S
AMERICUS       FAIR      77  77 100 CALM      30.09S
HOMERVILLE     FAIR      79  73  83 CALM      30.08F
$$

!GMZ750-755-770-775-270600
...Coastal and Buoy Obs...

STATION/POSITION TIME  TEMP    WIND        PRES    VSBY  WAVE
                       AIR SEA DIR/SP/G                  HT/PER
                 (UTC) (F)     (DEG/KT/KT) (MB)    (MI)  (FT/S)
KEATON BEACH     0500   85     280/  7/  9 1018.2R
CEDAR KEY        0500   84     300/  3/  4 1018.8R
C TOWER          0500   82     280/ 10/ 11 1019.4R
APALACHICOLA BUO 0450   85 87  250/  6/  8 1018.6R         3/ 6
PANAMA CITY BUOY 0450   82 87  300/ 12/ 14 1018.8R         4/ 6
MOBILE BUOY      0500   82 86  180/ 12/ 14 1017.3F
ORANGE BCH AL BU 0450   83 87  220/ 16/ 19 1017.4R         5/ 6
$$




USA.gov is the U.S. government's official web portal to all federal, state and local government web resources and services.